CFG7DT EDDF-LIPZ

Flight info

Callsign CFG7DT
Flight time 0h 58m
Altitude 31000
Route ANEKI2L/18 ANEKI Y163 PABLA Z721 UTABA/N0447F290 M738 ADOSA L612 ALBET
Aircraft A320/M-SDE3FGHIRWY/LB1

Departure

Time 2026-05-04 07:44
Airport Frankfurt Main Airport (EDDF)

Arrival

Time 2026-05-04 08:42
Airport Venice Marco Polo Airport (LIPZ)
Time Latitude Longitude Altitude Speed Heading
2026-05-04 07:22 50.04120 8.55822 359 ft 0 kts 160°
2026-05-04 07:38 50.04118 8.55823 352 ft 0 kts 160°
2026-05-04 07:39 50.04094 8.55837 360 ft 11 kts 159°
2026-05-04 07:39 50.04034 8.55890 350 ft 7 kts 108°
2026-05-04 07:39 50.04057 8.55986 354 ft 13 kts 69°
2026-05-04 07:40 50.04100 8.56157 356 ft 17 kts 70°
2026-05-04 07:40 50.04140 8.56327 360 ft 16 kts 70°
2026-05-04 07:40 50.04174 8.56476 360 ft 14 kts 69°
2026-05-04 07:40 50.04205 8.56602 359 ft 11 kts 69°
2026-05-04 07:41 50.04229 8.56702 363 ft 8 kts 69°
2026-05-04 07:41 50.04246 8.56771 360 ft 5 kts 69°
2026-05-04 07:41 50.04263 8.56843 363 ft 16 kts 70°
2026-05-04 07:41 50.04321 8.57088 367 ft 26 kts 70°
2026-05-04 07:42 50.04386 8.57363 365 ft 28 kts 70°
2026-05-04 07:42 50.04425 8.57585 364 ft 14 kts 100°
2026-05-04 07:42 50.04365 8.57669 364 ft 12 kts 160°
2026-05-04 07:42 50.04283 8.57692 362 ft 12 kts 205°
2026-05-04 07:43 50.04251 8.57598 366 ft 11 kts 249°
2026-05-04 07:43 50.04159 8.57217 365 ft 74 kts 250°
2026-05-04 07:43 50.03901 8.56135 356 ft 135 kts 249°
2026-05-04 07:43 50.03535 8.54574 576 ft 160 kts 251°
2026-05-04 07:44 50.03177 8.52973 1312 ft 156 kts 250°
2026-05-04 07:44 50.02773 8.51411 2059 ft 156 kts 240°
2026-05-04 07:44 50.01957 8.50194 2398 ft 178 kts 210°
2026-05-04 07:44 50.00748 8.49493 2818 ft 193 kts 193°
2026-05-04 07:45 49.99362 8.49349 3256 ft 210 kts 178°
2026-05-04 07:45 49.97849 8.49642 3714 ft 229 kts 174°
2026-05-04 07:45 49.96201 8.50005 4227 ft 248 kts 174°
2026-05-04 07:45 49.94438 8.50409 4927 ft 263 kts 174°
2026-05-04 07:46 49.92620 8.50832 5897 ft 266 kts 174°
2026-05-04 07:46 49.90770 8.51257 6856 ft 270 kts 174°
2026-05-04 07:46 49.88898 8.51686 7774 ft 274 kts 174°
2026-05-04 07:46 49.87002 8.52119 8716 ft 277 kts 174°
2026-05-04 07:47 49.85084 8.52557 9648 ft 280 kts 174°
2026-05-04 07:47 49.83132 8.53000 10382 ft 291 kts 174°
2026-05-04 07:47 49.81048 8.53472 10695 ft 315 kts 174°
2026-05-04 07:49 49.64490 8.52333 15527 ft 353 kts 187°
2026-05-04 07:49 49.62025 8.52005 16229 ft 356 kts 187°
2026-05-04 07:49 49.59547 8.51677 16934 ft 359 kts 186°
2026-05-04 07:50 49.57050 8.51350 17635 ft 361 kts 186°
2026-05-04 07:50 49.54539 8.51024 18322 ft 364 kts 186°
2026-05-04 07:50 49.52006 8.50695 18915 ft 367 kts 186°
2026-05-04 07:50 49.49446 8.50362 19505 ft 370 kts 187°
2026-05-04 07:51 49.46866 8.50026 20095 ft 374 kts 187°
2026-05-04 07:51 49.44268 8.49685 20679 ft 377 kts 187°
2026-05-04 07:51 49.41642 8.49338 21252 ft 380 kts 187°
2026-05-04 07:51 49.38999 8.48990 21813 ft 383 kts 187°
2026-05-04 07:52 49.36358 8.48640 22357 ft 387 kts 187°
2026-05-04 07:52 49.33667 8.48286 22890 ft 390 kts 187°
2026-05-04 07:52 49.30916 8.47928 23418 ft 393 kts 187°
2026-05-04 07:52 49.28178 8.47574 23869 ft 396 kts 187°
2026-05-04 07:53 49.25423 8.47219 24307 ft 399 kts 187°
2026-05-04 07:54 49.05773 8.44530 27130 ft 411 kts 193°
2026-05-04 07:55 49.02980 8.43575 27503 ft 412 kts 195°
2026-05-04 07:55 49.00178 8.42597 27873 ft 414 kts 195°
2026-05-04 07:55 48.97360 8.41618 28242 ft 416 kts 195°
2026-05-04 07:55 48.94532 8.40638 28601 ft 418 kts 195°
2026-05-04 07:56 48.91693 8.39651 28943 ft 419 kts 195°
2026-05-04 07:56 48.88842 8.38659 29266 ft 421 kts 195°
2026-05-04 07:56 48.85967 8.37714 29586 ft 424 kts 191°
2026-05-04 07:56 48.83002 8.37453 29888 ft 431 kts 180°
2026-05-04 07:57 48.80010 8.38138 30169 ft 438 kts 168°
2026-05-04 07:57 48.77148 8.39793 30405 ft 447 kts 156°
2026-05-04 07:57 48.74534 8.42394 30635 ft 454 kts 144°
2026-05-04 07:57 48.72278 8.45775 30913 ft 458 kts 137°
2026-05-04 07:58 48.67963 8.52743 31027 ft 447 kts 138°
2026-05-04 07:58 48.63714 8.59526 31027 ft 443 kts 138°
2026-05-04 07:59 48.59480 8.66265 31027 ft 443 kts 138°
2026-05-04 07:59 48.55236 8.73010 31027 ft 443 kts 138°
2026-05-04 08:00 48.51020 8.79712 31029 ft 443 kts 138°
2026-05-04 08:02 48.33998 9.06545 31008 ft 443 kts 138°
2026-05-04 08:02 48.29731 9.13222 31013 ft 443 kts 138°
2026-05-04 08:03 48.25449 9.19904 31009 ft 444 kts 138°
2026-05-04 08:03 48.21166 9.26584 31012 ft 444 kts 138°
2026-05-04 08:04 48.16876 9.33258 31019 ft 444 kts 138°
2026-05-04 08:04 48.12578 9.39927 31020 ft 444 kts 138°
2026-05-04 08:05 48.08311 9.46523 31009 ft 445 kts 138°
2026-05-04 08:05 48.03999 9.53177 31010 ft 446 kts 138°
2026-05-04 08:06 47.99362 9.59166 31019 ft 440 kts 148°
2026-05-04 08:06 47.94405 9.64516 31023 ft 440 kts 148°
2026-05-04 08:08 47.74532 9.85891 31019 ft 442 kts 148°
2026-05-04 08:11 47.52901 10.08916 31011 ft 443 kts 148°
2026-05-04 08:11 47.45408 10.16843 31018 ft 444 kts 148°
2026-05-04 08:12 47.40289 10.21967 31034 ft 443 kts 151°
2026-05-04 08:12 47.35023 10.26689 31037 ft 442 kts 153°
2026-05-04 08:13 47.29737 10.31328 31042 ft 442 kts 153°
2026-05-04 08:13 47.24482 10.36022 31059 ft 442 kts 152°
2026-05-04 08:14 47.19228 10.40758 31052 ft 443 kts 152°
2026-05-04 08:16 46.97368 10.56644 31092 ft 436 kts 166°
2026-05-04 08:16 46.91565 10.59265 31091 ft 436 kts 166°
2026-05-04 08:17 46.85804 10.61876 31094 ft 436 kts 165°
2026-05-04 08:17 46.80007 10.64494 31102 ft 436 kts 165°
2026-05-04 08:19 46.56462 10.73114 31129 ft 435 kts 170°
2026-05-04 08:20 46.50549 10.74990 31144 ft 435 kts 170°
2026-05-04 08:20 46.44641 10.76940 31131 ft 435 kts 169°
2026-05-04 08:21 46.38727 10.78880 31167 ft 435 kts 169°
2026-05-04 08:21 46.32816 10.80793 31177 ft 435 kts 169°
2026-05-04 08:22 46.29860 10.81743 31051 ft 436 kts 169°
2026-05-04 08:22 46.26895 10.82694 30804 ft 436 kts 169°
2026-05-04 08:24 46.05912 10.89444 28896 ft 444 kts 169°
2026-05-04 08:24 46.02903 10.90413 28601 ft 442 kts 169°
2026-05-04 08:24 45.99946 10.91360 28335 ft 439 kts 169°
2026-05-04 08:24 45.96965 10.92308 28059 ft 438 kts 169°
2026-05-04 08:25 45.93996 10.93251 27798 ft 436 kts 169°
2026-05-04 08:25 45.91034 10.94191 27535 ft 435 kts 169°
2026-05-04 08:25 45.88088 10.95128 27161 ft 432 kts 169°
2026-05-04 08:25 45.85167 10.96059 26464 ft 429 kts 169°
2026-05-04 08:26 45.82260 10.96985 25794 ft 425 kts 169°
2026-05-04 08:27 45.67097 11.14392 20983 ft 418 kts 124°
2026-05-04 08:28 45.65529 11.17874 20334 ft 415 kts 124°
2026-05-04 08:28 45.63976 11.21328 19701 ft 412 kts 124°
2026-05-04 08:28 45.62428 11.24768 19078 ft 410 kts 124°
2026-05-04 08:28 45.60768 11.28057 18464 ft 406 kts 129°
2026-05-04 08:29 45.59047 11.31244 17777 ft 404 kts 129°
2026-05-04 08:29 45.57389 11.34463 17097 ft 402 kts 125°
2026-05-04 08:29 45.55876 11.37817 16422 ft 400 kts 124°
2026-05-04 08:31 45.45086 11.58647 12562 ft 355 kts 129°
2026-05-04 08:33 45.35767 11.76137 8748 ft 285 kts 129°
2026-05-04 08:33 45.34571 11.78353 8234 ft 279 kts 129°
2026-05-04 08:35 45.29382 11.94315 5107 ft 271 kts 77°
2026-05-04 08:35 45.29846 11.96897 4805 ft 263 kts 75°
2026-05-04 08:35 45.30305 11.99338 4591 ft 253 kts 75°
2026-05-04 08:35 45.30753 12.01725 4388 ft 246 kts 75°
2026-05-04 08:37 45.34406 12.14046 3193 ft 215 kts 54°
2026-05-04 08:37 45.35357 12.15668 3031 ft 213 kts 46°
2026-05-04 08:37 45.36420 12.17126 2952 ft 212 kts 42°
2026-05-04 08:38 45.37516 12.18536 2957 ft 213 kts 42°
2026-05-04 08:38 45.38608 12.19931 2793 ft 208 kts 42°
2026-05-04 08:38 45.39657 12.21271 2557 ft 198 kts 42°
2026-05-04 08:40 45.45803 12.29139 986 ft 137 kts 42°
2026-05-04 08:40 45.46502 12.30035 809 ft 134 kts 42°
2026-05-04 08:40 45.47190 12.30917 637 ft 133 kts 43°
2026-05-04 08:41 45.47875 12.31795 445 ft 131 kts 44°
2026-05-04 08:41 45.48544 12.32666 309 ft 131 kts 45°
2026-05-04 08:41 45.49222 12.33525 119 ft 131 kts 44°
2026-05-04 08:41 45.49881 12.34376 14 ft 116 kts 43°
2026-05-04 08:42 45.50350 12.34985 13 ft 69 kts 42°
2026-05-04 08:42 45.50608 12.35315 14 ft 30 kts 33°
2026-05-04 08:42 45.50797 12.35414 16 ft 26 kts
2026-05-04 08:42 45.50901 12.35445 16 ft 16 kts 13°
2026-05-04 08:43 45.50981 12.35392 18 ft 13 kts 290°
2026-05-04 08:43 45.50966 12.35272 17 ft 13 kts 257°
2026-05-04 08:43 45.50928 12.35168 16 ft 12 kts 221°
2026-05-04 08:43 45.50865 12.35086 16 ft 16 kts 222°
2026-05-04 08:44 45.50781 12.34976 16 ft 16 kts 222°
2026-05-04 08:44 45.50702 12.34875 16 ft 15 kts 221°
2026-05-04 08:46 45.50703 12.34231 17 ft 4 kts 313°
2026-05-04 08:46 45.50704 12.34208 16 ft 2 kts 249°
2026-05-04 08:46 45.50678 12.34172 16 ft 6 kts 227°
2026-05-04 08:46 45.50664 12.34150 16 ft 1 kts 229°
2026-05-04 08:47 45.50658 12.34141 16 ft 0 kts 228°